...
188indobet
Poker online

Jackpot

Texas Poker Multi Jackpot System

Kini Telah hadir Jackpot SUPER ROYAL FLUSH

Kini Telah hadir Jackpot 2000 (khusus table VIP keatas).

Ikutilah global jackpot yang tersedia di system kami, dengan system jackpot terbaru dan pertama di indonesia, anda dapat membeli jackpot dengan harga 100 rupiah saja dan menangkan hadiahnya hingga puluhan juta rupiah.

Jackpot bukanlah suatu keharusan untuk dibeli, namun kami memberikan suatu fitur tambahan untuk member tercinta dari www.jospoker.cc.

Terdapat tiga pilihan harga jackpot yang bisa anda beli yaitu :100,500,1000 dan 2000(khusus table VIP Keatas) rupiah.

Hadiah dari Multi jackpot system www.jospoker.cc

  1. full house x 10 harga jackpot yang anda beli.
      (contoh:anda membeli 1000 maka:1000 X10 = 10.000)
  2. four of kind x 250 harga jackpot yang anda beli
      (contoh:anda membeli 1000 maka:1000 X250 = 250.000)
  3. Straight flush x 1200
      (contoh:anda membeli 1000 maka:1000 X1200 = 1.200.000)
  4. Royal flush x 10000 harga jackpot yang anda beli
      (contoh:anda membeli 1000 maka:1000 X10000 = 10.000.000)
  5. SUPER ROYAL FLUSH x 30000 harga jackpot yang anda beli
      (contoh:anda membeli 1000 maka:1000 X30000 = 30.000.000)

Kondisi kartu

  1. full house adalah kondisi kartu dimana kartu anda dan kartu tengah dengan total 7 kartu bisa mendapatkan nilai 5 kartu dengan kombinasi 1 tris(three of kind) dan 1 pair, contoh 3 kartu 10 dan 2 kartu 5
  2. Four of kind adalah kondisi kartu dimana kartu anda dan kartu tengah dengan total 7 kartu bisa mendapatkan nilai 5 kartu dengan kombinasi 4 kartu yang sama jumlah dan 1 kartu apapun juga contoh anda mendapatkan 4 buah kartu angka 3 dan 1 kartu apapun.
  3. Staright flush adalah kondisi kartu dimana kartu anda dan kartu tengah dengan total 7 kartu bisa mendapatkan nilai 5 kartu dengan kombinasi seri / staright dengan kembang yang sama contoh : urutan kartu dari angka 5, 6, 7, 8 , 9 10 dengan kembang yg sama misalnya as hati
  4. Royal flush adalah kondisi kartu dimana kartu anda dan kartu tengah dengan total 7 kartu bisa mendapatkan nilai 5 kartu dengan kombinasi seri / staright dengan kembang yang sama tetapi kartu tersebut haruslah dimulai dari 10. contoh 10, Queen, Jack, King dan aces dengan kembang yang sama
  5. Super Royal flush adalah kondisi kartu dimana Kedua kartu anda digabung dengan 3 kartu pertama meja haruslah royal flush. contoh kartu anda 10,Queen kembang sama dan 3 kartu pertama meja adalah Jack, King dan aces dengan kembang yang sama

Demikian adalah penjelasan dari Multi Jackpot www.jospoker.cc terima kasih dan selamat bermain salam hoki dari kami

Texas Poker Jackpot Winner

TOP SUPER ROYAL FLUSH
No.TanggalNamaPriceWin
122/09 02:24TAUN101Super Royal flush30,000,000
221/09 14:11ROYALJOZZSuper Royal flush60,000,000
321/09 13:43BA_ATIYOSuper Royal flush6,000,000
421/09 12:23B8EKCBJIYMSuper Royal flush3,000,000
521/09 08:32TUPO25Super Royal flush3,000,000
TOP ROYAL FLUSH
No.TanggalNamaPriceWin
122/09 02:56AMARASULI8Royal flush5,000,000
222/09 02:54CARIDIRoyal flush500,000
322/09 02:46BD5217E2Royal flush2,000,000
422/09 02:42CS_JPQQRoyal flush2,000,000
522/09 02:40LAZUARDY92Royal flush20,000,000
TOP STRAIGHT FLUSH
No.TanggalNamaPriceWin
122/09 03:00ARBIEEStraight Flush600,000
222/09 02:58ADEFIRDIANStraight Flush240,000
322/09 02:58BORNOK22Straight Flush600,000
422/09 02:58TETEW99999Straight Flush120,000
522/09 02:55M4NJ4NGGGStraight Flush600,000
LATEST JACKPOT
No.TanggalNamaPriceWin
122/09 03:01ACONGLIFull House5,000
222/09 03:01YUDHI685Full House10,000
322/09 03:01DYRAN091Full House2,000
422/09 03:01SYAFAFI007Full House5,000
522/09 03:01TRIJAYA123Full House10,000
622/09 03:01BRENGOS133Full House2,000
722/09 03:01MARYAHOFull House2,000
822/09 03:01LUTUTUNG9Full House2,000
922/09 03:01NEWGOZIN24Full House2,000
1022/09 03:01FIJAY08Full House2,000
1122/09 03:01MAKEROOT85Full House2,000
1222/09 03:01S4B4RLHOFull House2,000
1322/09 03:01Y4K1NK4NFull House5,000
1422/09 03:01DEDEE74Full House2,000
1522/09 03:01TUTUT39Full House2,000
1622/09 03:01BAD_BOY69Full House5,000
1722/09 03:01YES99AFull House10,000
1822/09 03:01LIONEL1OFull House10,000
1922/09 03:01RAIHAN999Full House5,000
2022/09 03:01B312H451LFull House2,000
2122/09 03:01TUTUH_DAFull House5,000
2222/09 03:01BATEDOS32Full House2,000
2322/09 03:01DAYRUN88Full House5,000
2422/09 03:01SNI56756Full House10,000
2522/09 03:01KOMPOR2125Full House10,000
2622/09 03:01VGOCHAOSBLK90Full House5,000
2722/09 03:01XZE5TNMLB8Full House2,000
2822/09 03:01LUDO1102Four Of A Kind25,000
2922/09 03:01PALALOLELOFull House1,000
3022/09 03:01OLIES09Full House5,000
3122/09 03:01WIN133Full House5,000
3222/09 03:01T3UR3UYFull House5,000
3322/09 03:01LULA300Full House20,000
3422/09 03:01GZZ97NLD84Full House20,000
3522/09 03:01JUARAWIN_Full House5,000
3622/09 03:01IZQ3DCDJSXFull House2,000
3722/09 03:01N9JPFull House2,000
3822/09 03:01DAJJALLSZFull House2,000
3922/09 03:01SYAFITRI45Full House1,000
4022/09 03:01JACK_P25Full House10,000
4122/09 03:01JUARA1000KFull House5,000
4222/09 03:01ARFAN2785Full House2,000
4322/09 03:01TO365Full House1,000
4422/09 03:01E_V_I_LFour Of A Kind12,500
4522/09 03:01GUNSNROSESFull House2,000
4622/09 03:01MARIOS88Four Of A Kind25,000
4722/09 03:01SMILE85Full House5,000
4822/09 03:01H44UQS72E2Full House2,000
4922/09 03:01LOVE090908Full House2,000
5022/09 03:01DEEPWEBFull House2,000

Domino Multi Jackpot System

Ikutilah global jackpot yang tersedia di system kami, dengan system jackpot terbaru dan pertama di indonesia, anda dapat membeli jackpot dengan harga 100 rupiah saja dan menangkan hadiahnya hingga puluhan juta rupiah.

Jackpot bukanlah suatu keharusan untuk dibeli, namun kami memberikan suatu fitur tambahan untuk member tercinta dari www.jospoker.cc.

Terdapat tiga pilihan harga jackpot yang bisa anda beli yaitu :100,500 dan 1000 rupiah.

Hadiah dari Multi jackpot system www.jospoker.cc

  1. Murni Kecil x 50 harga jackpot yang anda beli.
      (contoh:anda membeli 1000 maka:1000 X 50 = 50.000)
  2. Murni Besar x 50 harga jackpot yang anda beli
      (contoh:anda membeli 1000 maka:1000 X 50 = 50.000)
  3. BALAK x 100 harga jackpot yang anda beli
      (contoh:anda membeli 1000 maka:1000 X 100 = 100.000)
  4. ENAM DEWA x 6666 harga jackpot yang anda beli
      (contoh:anda membeli 1000 maka:1000 X 6666 = 6.666.000)

Demikian adalah penjelasan dari Multi Jackpot www.jospoker.cc terima kasih dan selamat bermain salam hoki dari kami

Domino Jackpot Winner

TOP ENAM DEWA
No.TanggalNamaPriceWin
122/09 01:09WISMA92murni enam3,333,000
222/09 01:08ABAY888888murni enam3,333,000
322/09 00:44AMSEO99murni enam3,333,000
422/09 00:43DYCK22murni enam6,666,000
521/09 23:35TEMPE444murni enam666,600
TOP BALAK
No.TanggalNamaPriceWin
122/09 03:00SUMMON99balak50,000
222/09 02:57GEGER057balak100,000
322/09 02:49LIMCIAWMEbalak100,000
422/09 02:47PAPIIDDbalak50,000
522/09 02:47BOBBY7balak100,000
LATEST JACKPOT
No.TanggalNamaPriceWin
122/09 03:01FIAN566murni kecil50,000
222/09 03:01REVYmurni kecil5,000
322/09 03:00SUMMON99balak50,000
422/09 03:00GARANmurni besar50,000
522/09 02:59AZH26murni kecil50,000
622/09 02:59J4LI8888murni kecil25,000
722/09 02:59JPWINNER87murni besar50,000
822/09 02:58SATRIASJTmurni besar50,000
922/09 02:58NYALANDARmurni besar5,000
1022/09 02:57GEGER057balak100,000
1122/09 02:57EEHWEH16murni kecil50,000
1222/09 02:56PKPUmurni besar25,000
1322/09 02:56GATHUK99lucky9910,000
1422/09 02:56LONTAR50murni kecil25,000
1522/09 02:56SO1818murni kecil25,000
1622/09 02:55VIOLET72murni besar50,000
1722/09 02:55BULUKS66murni kecil5,000
1822/09 02:53YUGHA_77murni besar25,000
1922/09 02:53C20IRUL455lucky9950,000
2022/09 02:53DEWAFM9191murni kecil25,000
2122/09 02:53RH4848murni kecil5,000
2222/09 02:52BEBEC98murni kecil50,000
2322/09 02:51PKPUmurni kecil25,000
2422/09 02:51DADO378murni kecil25,000
2522/09 02:51WINDSGOmurni kecil50,000
2622/09 02:50BLEWO9murni kecil25,000
2722/09 02:49JANUARY20murni kecil50,000
2822/09 02:49LIMCIAWMEbalak100,000
2922/09 02:48GOGOJMLmurni besar25,000
3022/09 02:48GARANmurni kecil50,000
3122/09 02:47PAPIIDDbalak50,000
3222/09 02:47BOBBY7balak100,000
3322/09 02:47PTR80Tmurni besar50,000
3422/09 02:47J4TI87murni besar25,000
3522/09 02:47BONZZ007murni besar50,000
3622/09 02:46PENJOL1975murni kecil50,000
3722/09 02:46POND9899murni besar5,000
3822/09 02:46WDMULU99murni kecil50,000
3922/09 02:46LADANG02balak10,000
4022/09 02:44JONKUR02murni kecil25,000
4122/09 02:44BP888002murni kecil50,000
4222/09 02:44CACAY305murni besar50,000
4322/09 02:44HAER333lucky9950,000
4422/09 02:44VALETGM2balak100,000
4522/09 02:44DEWAFM9191murni kecil50,000
4622/09 02:43DN123murni besar5,000
4722/09 02:43LB886763murni besar25,000
4822/09 02:43HAMPURA11murni besar50,000
4922/09 02:43TEGUH140murni besar25,000
5022/09 02:43HOKYBLAYmurni besar5,000

Ceme Multi Jackpot System

Jackpot dilihat dari gabungan kartu pemain dengan kartu bandar. Bandar harus membeli jackpot sebanyak jumlah player yang sedang duduk. Sebagai contoh bila terdapat 3 pemain duduk bermain, dan bandar memutuskan untuk membeli jackpot Rp 1.000, maka pada periode tersebut bandar akan membeli jackpot sebanyak 3xRp1.000 = Rp3.000.

Jackpot bukanlah suatu keharusan untuk dibeli, namun kami memberikan suatu fitur tambahan untuk member tercinta dari www.jospoker.cc.

Terdapat tiga pilihan harga jackpot yang bisa anda beli yaitu :100,500 dan 1000 rupiah.

Hadiah dari Multi jackpot system www.jospoker.cc

  1. Murni Kecil x 50 harga jackpot yang anda beli.
      (contoh:anda membeli 1000 maka:1000 X 50 = 50.000)
  2. Murni Besar x 50 harga jackpot yang anda beli
      (contoh:anda membeli 1000 maka:1000 X 50 = 50.000)
  3. BALAK x 200 harga jackpot yang anda beli
      (contoh:anda membeli 1000 maka:1000 X 200 = 200.000)
  4. ENAM DEWA x 6666 harga jackpot yang anda beli
      (contoh:anda membeli 1000 maka:1000 X 6666 = 6.666.000)

Demikian adalah penjelasan dari Multi Jackpot www.jospoker.cc terima kasih dan selamat bermain salam hoki dari kami

Ceme Jackpot Winner

TOP ENAM DEWA
No.TanggalNamaPriceWin
122/09 02:18SGANTENG76murni enam666,600
222/09 02:15FUUD1111murni enam666,600
322/09 01:13ALUCARD27murni enam6,666,000
422/09 01:12MRET27murni enam3,333,000
522/09 00:58MARZO11murni enam6,666,000
TOP BALAK
No.TanggalNamaPriceWin
122/09 03:00INACANT1Kbalak20,000
222/09 03:00HAWARI1balak20,000
322/09 02:59G418balak200,000
422/09 02:58SAKURMAUbalak200,000
522/09 02:57MBOISBOSbalak200,000
LATEST JACKPOT
No.TanggalNamaPriceWin
122/09 03:01NICKYAGUSTmurni kecil50,000
222/09 03:01JAWA1976murni besar50,000
322/09 03:01JEANY766murni kecil50,000
422/09 03:01MIWA88murni kecil25,000
522/09 03:01APUNKSmurni besar5,000
622/09 03:01KODIR63murni besar50,000
722/09 03:01SUMBERBEJOmurni besar25,000
822/09 03:01WIN343murni kecil50,000
922/09 03:01ATTULLmurni kecil25,000
1022/09 03:01DWBTT4N22murni kecil50,000
1122/09 03:01BP888091murni besar25,000
1222/09 03:01XG35GUTTANmurni besar50,000
1322/09 03:01WTF123murni besar25,000
1422/09 03:01HRP561978murni besar50,000
1522/09 03:01AWAW51murni kecil50,000
1622/09 03:01ANGBOS20murni kecil5,000
1722/09 03:01YESSYNURImurni kecil5,000
1822/09 03:00IBI766murni kecil50,000
1922/09 03:00ABDHULL21murni kecil50,000
2022/09 03:00JIMMYA999murni kecil5,000
2122/09 03:00BONIALGOJAmurni besar50,000
2222/09 03:00SHERMYmurni kecil50,000
2322/09 03:00TERA72murni kecil50,000
2422/09 03:00BOEX9KETEXmurni kecil50,000
2522/09 03:00INACANT1Kbalak20,000
2622/09 03:00HAWARI1balak20,000
2722/09 03:00YAYA1983murni kecil50,000
2822/09 03:00D_APRImurni kecil5,000
2922/09 03:00YARDI123murni kecil5,000
3022/09 03:00MASTERCOCmurni kecil50,000
3122/09 03:00JONDOL8899murni besar50,000
3222/09 03:00JENARO97murni kecil50,000
3322/09 03:00EVILBOYYYmurni kecil5,000
3422/09 03:00REEZHAL69murni besar25,000
3522/09 03:00REEZHAL69murni besar25,000
3622/09 03:00BANI1991murni besar25,000
3722/09 03:00REEZHAL69murni besar25,000
3822/09 02:59LPUZOZP12Dmurni besar25,000
3922/09 02:59ALVERO89murni besar50,000
4022/09 02:59HELZImurni kecil25,000
4122/09 02:59WIDIA11murni besar50,000
4222/09 02:59CLEONNNNmurni besar50,000
4322/09 02:59SHERMYmurni kecil50,000
4422/09 02:59G418balak200,000
4522/09 02:59AROM82murni kecil25,000
4622/09 02:59ODON321murni besar25,000
4722/09 02:59NAGAHOKIE8murni besar5,000
4822/09 02:59FNZFHQ87IVmurni kecil50,000
4922/09 02:59BOLAA55murni kecil50,000
5022/09 02:59ZIMI92murni kecil50,000